CW7648 Weather Reports


time (UTC)temp
C
wind
direction
speed
KPH
gust
KPH
rain 1hr
cm
rain 24hr
cm
rain mn
cm
humidity
%
barometer
mb
20190823221936 16 45 0.0 1.6 0.00 0.00 0.00 88 1016.4
20190823220935 16 45 0.0 3.2 0.00 0.00 0.00 88 1016.4
20190823215934 16 67 0.0 0.0 0.00 0.00 0.00 87 1016.8
20190823213932 17 45 0.0 0.0 0.00 0.00 0.00 88 1016.8
20190823212931 17 45 0.0 0.0 0.00 0.00 0.00 87 1016.8
20190823210929 17 45 0.0 0.0 0.00 0.00 0.00 87 1017.1
20190823205928 17 45 0.0 0.0 0.00 0.00 0.00 87 1017.1
20190823204927 17 45 0.0 0.0 0.00 0.00 0.00 86 1017.1
20190823202925 17 67 0.0 0.0 0.00 0.00 0.00 86 1017.4
20190823201925 17 67 0.0 0.0 0.00 0.00 0.00 86 1017.8
20190823200924 17 67 0.0 0.0 0.00 0.00 0.00 86 1017.8
20190823195923 17 67 0.0 0.0 0.00 0.00 0.00 85 1017.8
20190823194922 17 67 0.0 0.0 0.00 0.00 0.00 85 1017.8
20190823193920 17 67 0.0 0.0 0.00 0.00 0.00 84 1017.8
20190823184228 18 67 0.0 8.0 0.00 0.00 0.00 83 1017.8
20190823183228 18 68 1.6 4.8 0.00 0.00 0.00 83 1017.8
20190823182227 18 78 1.6 6.4 0.00 0.00 0.00 83 1017.8
20190823180225 18 45 1.6 8.0 0.00 0.00 0.00 82 1017.8
20190823174222 18 67 0.0 6.4 0.00 0.00 0.00 81 1017.8
20190823172220 18 45 0.0 8.0 0.00 0.00 0.00 81 1017.8
20190823171219 18 56 1.6 8.0 0.00 0.00 0.00 81 1017.8
20190823170218 19 52 1.6 12.9 0.00 0.00 0.00 80 1017.8
20190823165217 19 48 1.6 11.3 0.00 0.00 0.00 80 1017.8
20190823164216 19 58 4.8 16.1 0.00 0.00 0.00 79 1017.8
20190823162214 20 71 3.2 14.5 0.00 0.00 0.00 79 1017.8
20190823161213 20 63 1.6 8.0 0.00 0.00 0.00 78 1017.4
20190823160212 20 56 4.8 9.7 0.00 0.00 0.00 77 1017.8
20190823155211 20 69 3.2 9.7 0.00 0.00 0.00 77 1017.8
20190823153209 20 63 9.7 17.7 0.00 0.00 0.00 77 1017.8
20190823152207 20 47 11.3 17.7 0.00 0.00 0.00 77 1017.8
20190823150206 20 71 6.4 17.7 0.00 0.00 0.00 77 1017.8
20190823145205 20 51 9.7 19.3 0.00 0.00 0.00 77 1017.8
20190823144204 20 70 8.0 24.1 0.00 0.00 0.00 76 1018.1
20190823140200 20 54 11.3 20.9 0.00 0.00 0.00 74 1018.1
20190823135158 20 60 6.4 30.6 0.00 0.00 0.00 74 1018.1
20190823133156 19 70 14.5 25.7 0.00 0.00 0.00 75 1018.5
20190823125152 18 60 11.3 27.4 0.00 0.00 0.00 75 1018.5
20190823123150 19 57 6.4 25.7 0.00 0.00 0.00 75 1018.8
20190823122149 19 56 8.0 20.9 0.00 0.00 0.00 76 1019.1
20190823121148 19 54 9.7 20.9 0.00 0.00 0.00 76 1019.1
20190823120147 19 82 9.7 32.2 0.00 0.00 0.00 76 1019.1
20190823115145 19 63 11.3 19.3 0.00 0.00 0.00 75 1019.1
20190823113143 19 82 8.0 19.3 0.00 0.00 0.00 77 1019.1
20190823111141 19 52 14.5 27.4 0.00 0.00 0.00 76 1019.1
20190823105139 19 58 14.5 27.4 0.00 0.00 0.00 79 1019.5
20190823104138 19 61 11.3 24.1 0.00 0.00 0.00 79 1019.5
20190823103137 19 52 8.0 19.3 0.00 0.00 0.00 80 1019.5
20190823102136 19 78 8.0 22.5 0.00 0.00 0.00 80 1019.5
20190823100134 19 50 9.7 24.1 0.00 0.00 0.00 81 1019.5
20190823095133 19 66 9.7 33.8 0.00 0.00 0.00 81 1019.5
20190823093131 19 61 9.7 22.5 0.00 0.00 0.00 83 1019.5
20190823082123 17 62 9.7 22.5 0.00 0.00 0.00 91 1019.5
20190823080121 16 54 3.2 11.3 0.00 0.00 0.00 93 1019.5
20190823074119 15 68 6.4 8.0 0.00 0.00 0.00 93 1019.8
20190823073119 14 78 4.8 11.3 0.00 0.00 0.00 93 1019.8
20190823065114 12 48 3.2 4.8 0.00 0.00 0.00 93 1019.8
20190823064113 12 45 0.0 3.2 0.00 0.00 0.00 93 1019.8
20190823062111 11 292 0.0 0.0 0.00 0.00 0.00 93 1019.8
20190823061110 11 292 0.0 0.0 0.00 0.00 0.00 93 1019.8
20190823060109 11 292 0.0 0.0 0.00 0.00 0.00 93 1019.8
20190823054108 10 247 0.0 0.0 0.00 0.00 0.00 93 1019.8
20190823053105 10 292 0.0 0.0 0.00 0.00 0.00 92 1019.8
20190823052104 10 292 0.0 0.0 0.00 0.00 0.00 92 1019.8
20190823051103 10 292 0.0 0.0 0.00 0.00 0.00 92 1019.8
20190823050102 10 292 0.0 0.0 0.00 0.00 0.00 92 1019.8
20190823045101 10 292 0.0 0.0 0.00 0.00 0.00 92 1019.8
20190823044100 10 270 0.0 0.0 0.00 0.00 0.00 92 1019.8
20190823035055 9 292 0.0 0.0 0.00 0.00 0.00 91 1019.5
20190823034055 9 247 0.0 0.0 0.00 0.00 0.00 91 1019.5
20190823033053 9 270 0.0 0.0 0.00 0.00 0.00 91 1019.5
20190823030050 10 270 0.0 0.0 0.00 0.00 0.00 91 1019.8
20190823025049 10 270 0.0 0.0 0.00 0.00 0.00 91 1019.8
20190823023047 10 202 0.0 4.8 0.00 0.00 0.00 91 1019.8
20190823020044 10 292 0.0 0.0 0.00 0.00 0.00 90 1019.8
20190823014041 10 292 0.0 0.0 0.00 0.00 0.00 91 1019.8
20190823013041 10 292 0.0 0.0 0.00 0.00 0.00 91 1019.8
20190823012039 10 292 0.0 0.0 0.00 0.00 0.00 91 1019.8
20190823005035 11 292 0.0 0.0 0.00 0.00 0.00 90 1019.8
20190823004035 11 292 0.0 0.0 0.00 0.00 0.00 90 1020.1
20190823002033 11 292 0.0 0.0 0.00 0.00 0.00 90 1019.8
20190823000030 11 292 0.0 0.0 0.00 0.00 0.00 89 1019.8
20190822235029 11 292 0.0 0.0 0.00 0.00 0.00 89 1019.8
20190822234028 11 292 0.0 0.0 0.00 0.00 0.00 89 1019.8
20190822233028 11 292 0.0 0.0 0.00 0.00 0.00 89 1020.1
20190822230024 12 292 0.0 0.0 0.00 0.00 0.00 89 1020.1
20190822225023 12 292 0.0 0.0 0.00 0.00 0.00 89 1020.1
20190822224022 12 292 0.0 0.0 0.00 0.00 0.00 88 1020.1